Find Starlink 31631

NORAD ID: 59459 Int'l Des: 2024-068 Owner: SPXS Country: US Constellation: starlink operational
LEOCIRCULAR

現在のビュー

3D地球を読み込み中...

About Starlink 31631

Starlink 31631 (NORAD 59459) is a starlink constellation satellite (v2 mini) launched Apr 10, 2024 by SPXS of US. It operates in LEO, CIRCULAR orbit with a mass of 730.00 kg.

次回通過

Passes for default location (London). Set your location on the main map for personalized predictions.

高度履歴

Loading altitude history...

軌道要素

1 59459U 24068E 26263.59072071 -.00001916 00000-0 -60167-4 0 9995
2 59459 43.0018 10.0751 0001115 272.2796 87.7928 15.27560633138378
Epoch: Sep 20, 2026 • Age: 8 hours

現在のステータス

高度 488.5 km
遠地点 / 近地点 N/A
速度 7.62 km/s
衛星直下点 -24.31°S, 11.73°E
打ち上げ日 Apr 10, 2024
運用期間 2.4 years
タイプ internet

技術仕様

分類 Payload
質量 730.00 kg
乾燥質量 700.00 kg
長さ 0.30 m
スパン 29.00 m
形状 ? Box + pan
製造者 SPXS
バスタイプ Starlink V2M
フェーズステータス In Orbit
所有者/国 SPXS/US

Most Searched